{"data":{"norad_id":63016,"epoch":"2026-05-24T23:29:19.998816Z","epoch_age_seconds":86943,"freshness":"FRESH","line1":"1 63016U 25032M   26144.97870369  .00206167  00000+0  15711-2 0  9992","line2":"2 63016  42.9978  95.3456 0001813 231.6594 128.4111 15.70833969 74226","mean_motion":15.70833969,"eccentricity":0.0001813,"inclination_deg":42.9978,"raan_deg":95.3456,"arg_perigee_deg":231.6594,"mean_anomaly_deg":128.4111,"bstar":0.0015711,"rev_number":7422,"period_min":91.671050436776,"perigee_km":355.29130743246,"apogee_km":357.73329126841,"semimajor_km":6734.6492993504,"source":"CELESTRAK","updated_at":"2026-05-25T13:38:19.837349Z"}}